Weather Roundup
Issued by NWS Springfield, MO

Home | Current Version | Previous Version | Text Only | Print | Product List | Glossary On
Versions: 1 2 3 4 5 6 7 8 9 10 11 12 13 14 15 16 17 18 19 20 21 22 23 24 25 26 27 28 29 30 31 32 33 34 35 36 37 38 39 40 41 42 43 44 45 46 47 48 49 50
000
NZUS99 KSGF 311259
HRRSGF

HOURLY WEATHER
NATIONAL WEATHER SERVICE SPRINGFIELD MO
700 AM CST SAT JAN 31 2015

......SGF CWA......

CITY           SKY/WX    TMP DP  RH WIND       PRES   REMARKS
SPRINGFIELD    LGT RAIN  37  28  70 VRB6      30.25F WCI  32
JOPLIN         CLOUDY    40  27  59 E8        30.23S WCI  34
WEST PLAINS    CLOUDY    34  23  64 SE6       30.32S WCI  29
ROLLA          CLOUDY    34  23  64 S10       30.28S WCI  26
OSAGE BEACH    CLOUDY    36  19  51 CALM      30.29S

......SURROUNDING SGF CWA......

CITY           SKY/WX    TMP DP  RH WIND       PRES   REMARKS
CHANUTE        CLOUDY    39  35  86 S6        30.22S WCI  35
PARSONS        CLOUDY    40  31  70 CALM      30.23R
COFFEYVILLE    CLOUDY    40  31  70 S3        30.23S
EMPORIA        CLOUDY    36  35  96 SE7       30.18S WCI  30
SILOAM SPRINGS CLOUDY    37  23  56 E3        30.25F
HARRISON AR    CLOUDY    36  25  64 S12       30.28F WCI  28
NEAR YELLVILLE CLOUDY    36  25  64 E3        30.33S

......KANSAS AND MISSOURI......

CITY           SKY/WX    TMP DP  RH WIND       PRES   REMARKS
KANSAS CTY INT LGT RAIN  34  33  96 SE5       30.25S WCI  30
DOWNTOWN KC    LGT RAIN  36  33  89 E5        30.26S WCI  32
COLUMBIA       CLOUDY    33  22  63 S5        30.29S WCI  29
SEDALIA        LGT RAIN  35  26  69 CALM      30.29S
ST JOSEPH      LGT RAIN  34  33  96 S3        30.26S FOG
ST LOUIS       MOCLDY    32  20  61 CALM      30.34R
SPIRIT OF STL  CLOUDY    27  24  89 CALM      30.33R
KIRKSVILLE     CLOUDY    30  21  69 SW5       30.27S WCI  25
WICHITA        FLURRIES  36  29  75 S7        30.17R WCI  30
TOPEKA         LGT RAIN  35  34  96 NE5       30.23F FOG     WCI  31
OLATHE         LGT RAIN  34  32  92 E6        30.23F FOG     WCI  29

......TENNESSEE......

CITY           SKY/WX    TMP DP  RH WIND       PRES   REMARKS
MEMPHIS        CLOUDY    38  21  50 SE3       30.37R
NASHVILLE      CLOUDY    26  22  84 CALM      30.40R

......ARKANSAS.......

CITY           SKY/WX    TMP DP  RH WIND       PRES   REMARKS
FAYETTEVILLE   CLOUDY    38  27  64 CALM      30.25R
FT SMITH       CLOUDY    40  27  59 E9        30.28S WCI  34
LITTLE ROCK    CLOUDY    39  29  67 E6        30.34F WCI  35

......OKLAHOMA.......

CITY           SKY/WX    TMP DP  RH WIND       PRES   REMARKS
TULSA          CLOUDY    43  29  57 S9        30.22F
PONCA CITY     CLOUDY    43  26  51 SE9       30.19S
MCALESTER      CLOUDY    44  27  51 S7        30.25R
OKLAHOMA CITY  LGT RAIN  42  34  73 SE9       30.17F

......IOWA............

CITY           SKY/WX    TMP DP  RH WIND       PRES   REMARKS
DES MOINES     CLOUDY    36  28  73 SW10      30.20S WCI  28
QUAD CITIES    MOCLDY    29  20  69 SW7       30.23R WCI  22

......ILLINOIS........

CITY           SKY/WX    TMP DP  RH WIND       PRES   REMARKS
QUINCY         CLOUDY    30  21  69 SW8       30.29R WCI  22
CHICAGO        MOCLDY    24  18  77 SW8       30.23F WCI  15



USA.gov is the U.S. government's official web portal to all federal, state and local government web resources and services.